Lid_Strength_Index
-1 -1 -1 -1 -1 -1 -1 -1 -1 -1 -1 -1 -1 -2 -2 -2 -1 -1 -2 -0 -1 -1 -1 -1 -1 -1 -1 -1 -1 -1 -1 -1 -1 -1 -1 -1 -1 -1 -1 -1 -2 -1 -2
-1 -1 -1 -1 -1 -1 -1 -1 -1 -1 -1 -1 -1 -2 -1 -1 -1 -1 -1 -2 -1 -1 -1 -1 -1 -1 -1 -1 -1 -2 -2 -2 -2 -1 -1 -1 -1 -1 -1 -1 -2 -2 -2
-2 -1 -1 -1 -1 -1 -1 -1 -1 -1 -1 -1 -1 -1 -1 -1 -1 -1 -1 -1 -2 -2 -2 -2 -2 -2 -2 -2 -2 -2 -2 -2 -2 -2 -1 -1 -1 -1 -1 -1 -2 -2 -2
-2 -1 -1 -1 -1 -1 -1 -1 -1 -1 -1 -1 -1 -1 -1 -1 -1 -2 -2 -2 -2 -2 -1 -1 -1 -1 -2 -2 -2 -2 -2 -2 -2 -2 -1 -1 -1 -2 -2 -2 -2 -2 -1
-2 -1 -1 -1 -1 -1 -1 -1 -1 -1 -1 -0 -0 -0 -1 -1 -2 -2 -1 -2 -2 -2 -2 -1 -0 -0 -1 -1 -2 -2 -2 -1 -1 -1 -1 -1 -2 -2 -1 -1 -1 -1 -1
-1 -1 -1 -1 -1 -1 -0 -0 -1 -1 -1 -0 0 -0 -1 -2 -2 -1 -1 -2 -2 -2 -2 -1 -2 -1 -0 -0 -1 -1 -1 -1 -1 -2 -1 -1 -1 -1 -1 -1 -1 -1 -1
-1 -1 -1 -1 -1 -1 -0 -0 -0 0 -0 -1 1 1 -0 -1 -1 -1 -2 -2 -2 -2 -2 -1 -1 -1 -1 -1 -1 0 0 -0 -1 -2 -2 -1 -1 -1 -1 -2 -2 -1 -1
-2 -1 -1 -0 -1 0 -0 -0 -0 0 -0 -1 1 1 3 2 1 -0 -1 -1 -1 -1 -1 -1 -1 -1 -1 -0 -1 -0 -0 -0 -1 -1 -1 -1 -1 -1 -1 -2 -2 -2 -2
-1 -1 -1 -1 -1 -1 0 -0 -0 0 1 -0 0 2 4 4 2 1 0 -0 -1 -1 -1 -1 -1 -1 -1 -1 -1 -1 -0 0 -0 -0 -0 0 0 -1 -1 -1 -1 -1 -2
-1 -1 -1 -1 0 0 0 -0 -0 -1 0 1 0 -0 0 1 4 4 1 0 -0 -0 -1 -1 -0 -0 -0 -1 -1 -0 1 1 1 0 0 0 1 0 -0 -0 -1 -1 -1
-1 -1 -1 0 0 -0 -0 -0 -0 -0 -0 0 1 0 -0 0 -0 3 4 2 0 0 0 0 -0 0 -0 -0 -0 0 1 2 1 1 1 1 1 1 0 0 0 -0 -1
0 0 0 1 0 -0 -0 -0 -0 -0 -0 -0 -0 0 1 2 2 2 3 2 2 1 1 0 0 0 0 0 0 0 1 1 1 2 2 2 2 2 1 1 1 1 0
1 1 1 0 0 -0 -1 -1 -1 -1 -0 -0 -0 0 -0 0 1 1 2 3 4 3 2 1 1 1 1 0 0 -0 0 -0 0 2 3 3 3 2 2 2 2 2 1
1 1 1 1 0 -0 0 -1 -0 -1 -1 -0 -0 -0 0 1 1 2 3 3 5 4 3 2 1 1 0 0 -0 -0 -0 -0 0 2 2 2 3 3 3 3 3 3 3
2 2 2 2 1 1 1 -0 0 0 -0 -0 0 0 1 1 2 2 2 3 4 6 6 3 3 0 1 -0 -0 -0 0 1 2 1 2 2 3 3 3 3 4 4 4
1 2 2 3 2 2 2 1 1 1 1 2 1 1 1 2 2 3 3 3 3 4 5 3 3 1 1 1 0 1 2 3 2 1 1 1 1 3 4 4 4 4 3
2 2 5 4 3 4 3 3 3 3 2 1 2 2 3 2 3 3 3 3 3 3 5 3 3 1 1 1 2 3 4 2 1 1 1 2 3 3 4 4 4 4 4
3 5 5 5 4 4 3 3 3 2 2 3 3 4 4 4 3 2 3 3 3 3 4 4 3 3 3 4 5 4 4 3 2 2 2 2 3 3 4 4 5 5 5
4 4 4 5 5 4 4 3 2 3 3 3 3 4 4 4 3 3 3 3 4 4 4 5 6 6 6 6 5 4 4 2 2 2 3 2 3 4 3 4 4 4 4
3 3 4 4 4 4 4 4 4 3 3 4 3 4 5 5 5 5 5 5 5 6 6 7 7 7 7 5 5 5 4 3 4 4 3 4 4 4 3 3 3 3 5
4 5 5 5 4 5 6 4 3 3 4 4 4 5 6 6 7 7 7 7 7 8 8 8 8 8 7 7 6 5 5 4 5 5 5 5 5 4 3 3 3 5 6
6 7 7 6 7 7 10 8 4 4 4 5 5 5 5 6 6 7 8 9 9 8 8 9 8 8 7 7 6 6 6 7 10 6 7 7 5 4 4 4 5 6 6
7 8 7 7 7 7 10 9 7 5 5 6 6 6 6 7 8 8 7 7 8 9 9 8 8 8 9 8 8 7 8 8 9 8 8 9 6 7 5 7 7 7 7
8 8 7 7 7 9 11 10 8 6 7 7 7 6 7 8 10 9 7 7 6 6 7 8 8 8 8 8 8 7 8 7 7 8 9 11 9 9 9 8 7 8 8
8 8 7 7 8 9 11 10 8 7 8 7 7 9 9 9 12 12 7 8 7 8 7 8 8 9 10 10 9 7 7 9 10 11 9 12 11 10 10 9 8 7 8
8 7 7 8 9 8 12 11 9 8 7 7 7 8 12 12 12 12 8 9 9 9 7 6 6 6 7 6 7 6 7 9 10 12 10 12 12 12 13 10 9 7 8